Time,TemperatureF,DewpointF,PressureIn,WindDirection,WindDirectionDegrees,WindSpeedMPH,WindSpeedGustMPH,Humidity,HourlyPrecipIn,Conditions,Clouds,dailyrainin,SoftwareType,DateUTC
2013-03-24 00:08:00,25.7,22.0,30.06,SE,132,0.0,0.0,87,0.00,,,0.00,weatherlink.com 1.10,2013-03-24 04:08:00,
2013-03-24 00:23:00,25.3,22.0,30.05,SE,132,0.0,0.0,87,0.00,,,0.00,weatherlink.com 1.10,2013-03-24 04:23:00,
2013-03-24 00:38:00,25.0,22.0,30.04,SE,132,0.0,0.0,88,0.00,,,0.00,weatherlink.com 1.10,2013-03-24 04:38:00,
2013-03-24 00:53:00,25.0,22.0,30.04,SE,133,0.0,0.0,88,0.00,,,0.00,weatherlink.com 1.10,2013-03-24 04:53:00,
2013-03-24 01:08:00,24.4,21.0,30.05,SE,132,0.0,0.0,88,0.00,,,0.00,weatherlink.com 1.10,2013-03-24 05:08:00,
2013-03-24 01:23:00,24.4,22.0,30.04,SE,133,0.0,0.0,90,0.00,,,0.00,weatherlink.com 1.10,2013-03-24 05:23:00,
2013-03-24 01:38:00,24.4,22.0,30.03,NNW,328,0.0,0.0,89,0.00,,,0.00,weatherlink.com 1.10,2013-03-24 05:38:00,
2013-03-24 01:53:00,24.1,21.0,30.04,ESE,116,0.0,0.0,89,0.00,,,0.00,weatherlink.com 1.10,2013-03-24 05:53:00,
2013-03-24 02:09:00,23.9,21.0,30.04,ESE,115,0.0,0.0,90,0.00,,,0.00,weatherlink.com 1.10,2013-03-24 06:09:00,
2013-03-24 02:24:00,23.6,21.0,30.04,ESE,116,0.0,0.0,90,0.00,,,0.00,weatherlink.com 1.10,2013-03-24 06:24:00,
2013-03-24 02:39:00,23.4,21.0,30.05,ESE,115,0.0,0.0,91,0.00,,,0.00,weatherlink.com 1.10,2013-03-24 06:39:00,
2013-03-24 02:54:00,23.2,21.0,30.06,ESE,115,0.0,0.0,91,0.00,,,0.00,weatherlink.com 1.10,2013-03-24 06:54:00,
2013-03-24 03:09:00,23.4,21.0,30.06,ESE,116,0.0,0.0,91,0.00,,,0.00,weatherlink.com 1.10,2013-03-24 07:09:00,
2013-03-24 03:24:00,23.4,21.0,30.04,ESE,116,0.0,0.0,91,0.00,,,0.00,weatherlink.com 1.10,2013-03-24 07:24:00,
2013-03-24 03:39:00,23.4,21.0,30.05,ESE,115,0.0,0.0,91,0.00,,,0.00,weatherlink.com 1.10,2013-03-24 07:39:00,
2013-03-24 03:54:00,23.5,21.0,30.04,ESE,116,0.0,0.0,91,0.00,,,0.00,weatherlink.com 1.10,2013-03-24 07:54:00,
2013-03-24 04:09:00,23.8,22.0,30.05,ESE,115,0.0,0.0,92,0.00,,,0.00,weatherlink.com 1.10,2013-03-24 08:09:00,
2013-03-24 04:24:00,24.3,22.0,30.05,ESE,116,0.0,0.0,92,0.00,,,0.00,weatherlink.com 1.10,2013-03-24 08:24:00,
2013-03-24 04:39:00,24.7,23.0,30.04,ESE,115,0.0,0.0,92,0.00,,,0.00,weatherlink.com 1.10,2013-03-24 08:39:00,
2013-03-24 04:54:00,24.9,23.0,30.03,ESE,115,0.0,0.0,91,0.00,,,0.00,weatherlink.com 1.10,2013-03-24 08:54:00,
2013-03-24 05:09:00,24.9,23.0,30.02,ESE,116,0.0,0.0,91,0.00,,,0.00,weatherlink.com 1.10,2013-03-24 09:09:00,
2013-03-24 05:24:00,24.8,23.0,30.02,ESE,116,0.0,0.0,91,0.00,,,0.00,weatherlink.com 1.10,2013-03-24 09:24:00,
2013-03-24 05:39:00,24.9,23.0,30.02,ESE,115,0.0,0.0,91,0.00,,,0.00,weatherlink.com 1.10,2013-03-24 09:39:00,
2013-03-24 05:54:00,25.0,23.0,30.01,ESE,116,0.0,0.0,91,0.00,,,0.00,weatherlink.com 1.10,2013-03-24 09:54:00,
2013-03-24 06:09:00,25.0,23.0,30.01,ESE,116,0.0,0.0,91,0.00,,,0.00,weatherlink.com 1.10,2013-03-24 10:09:00,
2013-03-24 06:24:00,25.2,23.0,30.01,ESE,117,0.0,0.0,91,0.00,,,0.00,weatherlink.com 1.10,2013-03-24 10:24:00,
2013-03-24 06:39:00,25.2,23.0,30.01,ESE,117,0.0,0.0,91,0.00,,,0.00,weatherlink.com 1.10,2013-03-24 10:39:00,
2013-03-24 06:54:00,25.4,23.0,30.00,ESE,117,0.0,0.0,91,0.00,,,0.00,weatherlink.com 1.10,2013-03-24 10:54:00,
2013-03-24 07:09:00,25.4,23.0,30.00,ESE,118,0.0,0.0,91,0.00,,,0.00,weatherlink.com 1.10,2013-03-24 11:09:00,
2013-03-24 07:24:00,25.6,23.0,30.00,ESE,118,0.0,0.0,91,0.00,,,0.00,weatherlink.com 1.10,2013-03-24 11:24:00,
2013-03-24 07:39:00,25.9,23.0,29.99,NNW,335,0.0,0.0,90,0.00,,,0.00,weatherlink.com 1.10,2013-03-24 11:39:00,
2013-03-24 07:54:00,26.1,24.0,29.99,NNW,335,0.0,0.0,90,0.00,,,0.00,weatherlink.com 1.10,2013-03-24 11:54:00,
2013-03-24 08:09:00,26.5,23.0,29.98,NNW,336,0.0,0.0,88,0.00,,,0.00,weatherlink.com 1.10,2013-03-24 12:09:00,
2013-03-24 08:24:00,26.9,24.0,29.98,NNW,336,0.0,0.0,88,0.00,,,0.00,weatherlink.com 1.10,2013-03-24 12:24:00,
2013-03-24 08:39:00,27.2,24.0,29.98,ENE,64,0.0,0.0,87,0.00,,,0.00,weatherlink.com 1.10,2013-03-24 12:39:00,
2013-03-24 08:54:00,27.7,24.0,29.98,NNW,330,0.0,1.0,86,0.00,,,0.00,weatherlink.com 1.10,2013-03-24 12:54:00,
2013-03-24 09:09:00,28.1,25.0,29.97,SW,221,0.0,0.0,86,0.00,,,0.00,weatherlink.com 1.10,2013-03-24 13:09:00,
2013-03-24 09:24:00,28.5,25.0,29.97,SSW,203,0.0,0.0,86,0.00,,,0.00,weatherlink.com 1.10,2013-03-24 13:24:00,
2013-03-24 09:39:00,28.8,25.0,29.97,West,267,0.0,0.0,86,0.00,,,0.00,weatherlink.com 1.10,2013-03-24 13:39:00,
2013-03-24 09:54:00,29.2,26.0,29.97,North,360,0.0,0.0,86,0.00,,,0.00,weatherlink.com 1.10,2013-03-24 13:54:00,
2013-03-24 10:09:00,29.7,26.0,29.96,SE,135,0.0,0.0,86,0.00,,,0.00,weatherlink.com 1.10,2013-03-24 14:09:00,
2013-03-24 10:24:00,30.2,26.0,29.96,WSW,245,0.0,0.0,85,0.00,,,0.00,weatherlink.com 1.10,2013-03-24 14:24:00,
2013-03-24 10:39:00,30.8,27.0,29.94,WSW,257,0.0,2.0,84,0.00,,,0.00,weatherlink.com 1.10,2013-03-24 14:39:00,
2013-03-24 10:54:00,31.5,27.0,29.94,SSW,192,1.0,3.0,82,0.00,,,0.00,weatherlink.com 1.10,2013-03-24 14:54:00,
2013-03-24 11:10:00,31.9,26.0,29.93,SSW,207,0.0,4.0,80,0.00,,,0.00,weatherlink.com 1.10,2013-03-24 15:10:00,
2013-03-24 11:25:00,32.1,26.0,29.91,South,180,1.0,5.0,79,0.00,,,0.00,weatherlink.com 1.10,2013-03-24 15:25:00,
2013-03-24 11:40:00,32.5,27.0,29.91,SE,139,1.0,4.0,79,0.00,,,0.00,weatherlink.com 1.10,2013-03-24 15:40:00,
2013-03-24 11:55:00,32.9,27.0,29.91,East,82,1.0,5.0,78,0.00,,,0.00,weatherlink.com 1.10,2013-03-24 15:55:00,
2013-03-24 12:10:00,33.3,27.0,29.90,SSE,156,2.0,5.0,76,0.00,,,0.00,weatherlink.com 1.10,2013-03-24 16:10:00,
2013-03-24 12:25:00,33.5,26.0,29.89,North,352,1.0,5.0,75,0.00,,,0.00,weatherlink.com 1.10,2013-03-24 16:25:00,
2013-03-24 12:40:00,33.7,26.0,29.88,NE,41,6.0,6.0,74,0.00,,,0.00,weatherlink.com 1.10,2013-03-24 16:40:00,
2013-03-24 12:55:00,34.5,27.0,29.87,SSW,211,3.0,4.0,74,0.00,,,0.00,weatherlink.com 1.10,2013-03-24 16:55:00,
2013-03-24 13:10:00,34.7,27.0,29.86,NW,314,1.0,5.0,72,0.00,,,0.00,weatherlink.com 1.10,2013-03-24 17:10:00,
2013-03-24 13:25:00,34.8,26.0,29.86,NNE,14,2.0,5.0,71,0.00,,,0.00,weatherlink.com 1.10,2013-03-24 17:25:00,
2013-03-24 13:40:00,34.9,26.0,29.86,NNW,343,1.0,4.0,71,0.00,,,0.00,weatherlink.com 1.10,2013-03-24 17:40:00,
2013-03-24 13:55:00,34.9,26.0,29.85,NE,50,3.0,5.0,71,0.00,,,0.00,weatherlink.com 1.10,2013-03-24 17:55:00,
2013-03-24 14:10:00,35.2,26.0,29.84,NNW,330,1.0,4.0,70,0.01,,,0.01,weatherlink.com 1.10,2013-03-24 18:10:00,
2013-03-24 14:25:00,35.8,27.0,29.84,WNW,303,0.0,4.0,69,0.01,,,0.01,weatherlink.com 1.10,2013-03-24 18:25:00,
2013-03-24 14:40:00,36.5,27.0,29.83,SSW,204,0.0,4.0,68,0.01,,,0.01,weatherlink.com 1.10,2013-03-24 18:40:00,
2013-03-24 14:55:00,36.5,26.0,29.82,NW,316,3.0,5.0,66,0.01,,,0.01,weatherlink.com 1.10,2013-03-24 18:55:00,
2013-03-24 15:10:00,36.7,27.0,29.81,SSE,160,0.0,5.0,67,0.00,,,0.01,weatherlink.com 1.10,2013-03-24 19:10:00,
2013-03-24 15:25:00,37.1,27.0,29.79,NNW,346,1.0,4.0,67,0.00,,,0.01,weatherlink.com 1.10,2013-03-24 19:25:00,
2013-03-24 15:40:00,37.5,27.0,29.79,SE,130,2.0,7.0,66,0.00,,,0.01,weatherlink.com 1.10,2013-03-24 19:40:00,
2013-03-24 15:56:00,37.8,27.0,29.78,SSW,207,1.0,3.0,65,0.00,,,0.01,weatherlink.com 1.10,2013-03-24 19:56:00,
2013-03-24 16:11:00,37.6,27.0,29.77,ESE,110,4.0,7.0,67,0.00,,,0.01,weatherlink.com 1.10,2013-03-24 20:11:00,
2013-03-24 16:26:00,37.2,27.0,29.77,SSW,198,0.0,4.0,68,0.01,,,0.02,weatherlink.com 1.10,2013-03-24 20:26:00,
2013-03-24 16:41:00,36.8,27.0,29.76,NE,36,1.0,5.0,68,0.01,,,0.02,weatherlink.com 1.10,2013-03-24 20:41:00,
2013-03-24 16:56:00,36.3,27.0,29.75,South,181,1.0,6.0,68,0.01,,,0.02,weatherlink.com 1.10,2013-03-24 20:56:00,
2013-03-24 17:11:00,36.3,26.0,29.74,SE,141,1.0,4.0,67,0.01,,,0.02,weatherlink.com 1.10,2013-03-24 21:11:00,
2013-03-24 17:41:00,36.2,26.0,29.72,SW,214,1.0,3.0,67,0.00,,,0.02,weatherlink.com 1.10,2013-03-24 21:41:00,
2013-03-24 17:56:00,36.0,26.0,29.72,NNW,340,2.0,4.0,67,0.00,,,0.02,weatherlink.com 1.10,2013-03-24 21:56:00,
2013-03-24 18:11:00,35.7,25.0,29.72,NE,43,0.0,8.0,66,0.00,,,0.02,weatherlink.com 1.10,2013-03-24 22:11:00,
2013-03-24 18:26:00,35.4,25.0,29.71,NNE,26,2.0,4.0,66,0.00,,,0.02,weatherlink.com 1.10,2013-03-24 22:26:00,
2013-03-24 18:41:00,34.6,24.0,29.71,SSW,192,0.0,8.0,65,0.00,,,0.02,weatherlink.com 1.10,2013-03-24 22:41:00,
2013-03-24 18:56:00,34.2,24.0,29.71,SE,131,0.0,5.0,67,0.00,,,0.02,weatherlink.com 1.10,2013-03-24 22:56:00,
2013-03-24 19:11:00,34.0,24.0,29.71,SE,137,0.0,7.0,67,0.00,,,0.02,weatherlink.com 1.10,2013-03-24 23:11:00,
2013-03-24 19:41:00,32.9,20.0,29.72,SE,139,5.0,9.0,59,0.00,,,0.02,weatherlink.com 1.10,2013-03-24 23:41:00,
2013-03-24 19:56:00,32.5,21.0,29.72,East,85,5.0,5.0,64,0.00,,,0.02,weatherlink.com 1.10,2013-03-24 23:56:00,
2013-03-24 20:11:00,32.1,22.0,29.72,South,170,2.0,4.0,67,0.00,,,0.02,weatherlink.com 1.10,2013-03-25 00:11:00,
2013-03-24 20:26:00,32.1,22.0,29.72,NW,323,2.0,5.0,66,0.00,,,0.02,weatherlink.com 1.10,2013-03-25 00:26:00,
2013-03-24 20:56:00,31.8,21.0,29.72,NNW,340,2.0,4.0,65,0.00,,,0.02,weatherlink.com 1.10,2013-03-25 00:56:00,
2013-03-24 21:11:00,31.6,22.0,29.73,WSW,245,0.0,6.0,67,0.00,,,0.02,weatherlink.com 1.10,2013-03-25 01:11:00,
2013-03-24 21:56:00,31.0,23.0,29.72,NNW,329,2.0,6.0,71,0.00,,,0.02,weatherlink.com 1.10,2013-03-25 01:56:00,
2013-03-24 22:11:00,30.9,23.0,29.72,SE,146,2.0,4.0,72,0.00,,,0.02,weatherlink.com 1.10,2013-03-25 02:11:00,
2013-03-24 22:26:00,30.8,23.0,29.72,NNE,26,1.0,4.0,73,0.00,,,0.02,weatherlink.com 1.10,2013-03-25 02:26:00,
2013-03-24 22:41:00,30.8,23.0,29.72,ESE,119,0.0,6.0,73,0.00,,,0.02,weatherlink.com 1.10,2013-03-25 02:41:00,
2013-03-24 23:11:00,30.7,23.0,29.72,South,177,0.0,6.0,73,0.00,,,0.02,weatherlink.com 1.10,2013-03-25 03:11:00,
2013-03-24 23:26:00,30.7,23.0,29.72,NW,323,0.0,4.0,74,0.00,,,0.02,weatherlink.com 1.10,2013-03-25 03:26:00,
2013-03-24 23:41:00,30.6,24.0,29.72,NW,315,1.0,3.0,75,0.00,,,0.02,weatherlink.com 1.10,2013-03-25 03:41:00,
2013-03-24 23:56:00,30.6,23.0,29.72,North,9,1.0,4.0,74,0.00,,,0.02,weatherlink.com 1.10,2013-03-25 03:56:00,